www.pogodaiklimat.ru

Погода и климат >> Архив погоды >> Россия >> Тверская область >> Бологое


АРХИВ ПОГОДЫ в Бологом

Время (UTC), дата Ветер
(напр.,м/с)
 
Видим.   Явления Облачность Т
(С)
Тd
(С)
f
(%)
Тe
(С)
Тes
(С)
Комфортность P
(гПа)
Po
(гПа)
Тmin
(С)
Tmax
(С)
R
(мм)
R24
(мм)
S
(см)
18 9.02 Ю 4 10 км 10/10 300 м
[St]
-0.8 -3.1 84 -6 -6 1013.8 990.4 +3.6
21 9.02 Ю 5 10 км 10/10 300 м
[St]
-1.3 -3.5 85 -8 -8 1012.9 989.5
00 10.02 Ю 4
{10}
10 км 10/10 300 м
[St]
-1.0 -3.5 83 -7 -7 1011.7 988.3
03 10.02 Ю 4 10 км 10/10 300 м
[St]
-1.1 -4.0 81 -7 -7 1010.6 987.2 -1.7
06 10.02 Ю 4 10 км 10/10 300 м
[St]
-1.7 -4.6 81 -7 -7 1010.2 986.8 -1.7 34
09 10.02 Ю 4 10 км {снег} 10/10 300 м
[St]
-1.9 -5.4 77 -8 -8 1010.3 986.8
12 10.02 Ю 5 10 км {снег} 10/10 300 м
[St]
-2.3 -5.8 77 -9 -9 1009.5 986.0
15 10.02 Ю 3 10 км 10/10 300 м
[St]
-2.3 -5.1 81 -7 -7 1009.3 985.8 0.2
18 10.02 Ю 4 10 км в посл. час ливневой снег 10/10 300 м
[St]
-2.6 -5.0 84 -9 -9 1009.2 985.7 -1.7 0.2
21 10.02 Ю 3 4000 м снежные зёрна 10/10 300 м
[St]
-2.4 -4.1 88 -8 -8 1009.2 985.7
00 11.02 Ю 3 10 км {снег} 10/10 300 м
[St]
-2.0 -3.5 89 -7 -7 1009.5 986.1
03 11.02 Ю 2 4000 м дымка 10/10 300 м
[St]
-1.8 -2.7 94 -6 -6 1009.5 986.1 -2.6 0.0
06 11.02 ЮВ 3 4000 м дымка 4/3 600 м
[Sc Ci sp]
-2.3 -3.6 91 -8 -7 1008.3 984.9 -2.6 0.0 33
09 11.02 Ю 4
{10}
10 км 10/0
[Ac As]
-0.5 -2.9 84 -6 -6 1008.1 984.9
12 11.02 ЮВ 5
{10}
10 км 10/10 300 м
[St]
+0.1 -2.8 81 -6 -6 1007.2 984.0
15 11.02 ЮВ 5
{10}
10 км 10/10 300 м
[St]
-0.4 -3.0 83 -7 -7 1006.7 983.5
18 11.02 ЮВ 5
{11}
4000 м слаб. снег 10/8 300 м
[Frnb As op]
-0.5 -2.7 85 -7 -7 1004.9 981.7 +0.2 0.2
21 11.02 Ю 4
{11}
4000 м слаб. снег 10/8 300 м
[Frnb As op]
-0.4 -2.1 88 -6 -6 1004.6 981.4
00 12.02 ЮВ 4
{11}
10 км {снег} 10/10 300 м
[St]
-0.1 -2.9 81 -5 -5 1003.1 980.0
03 12.02 Ю 4 10 км 10/10 300 м
[St]
+0.5 -2.3 81 -5 -5 1002.9 979.8 -0.6 0.5
06 12.02 Ю 4 4000 м слаб. снег 10/8 300 м
[Frnb As op]
-0.1 -1.1 93 -6 -6 1002.9 979.7 -0.6 0.9 34
09 12.02 Ю 3 4000 м слаб. снег 10/10 300 м
[Frnb Ns]
+0.4 -0.7 92 -4 -4 1003.1 980.0
12 12.02 Ю 4 10 км {снег} 10/10 300 м
[St]
+1.1 -0.6 88 -4 -4 1003.1 980.1
15 12.02 Ю 3 10 км 10/10 300 м
[St]
+1.2 -0.8 87 -3 -3 1004.2 981.2 2
18 12.02 Ю 3 10 км 10/10 300 м
[St]
+1.1 -1.3 84 -3 -3 1005.4 982.3 +1.3 1
21 12.02 ЮЗ 3 10 км 10/10 300 м
[St]
+0.8 -1.5 85 -4 -4 1006.7 983.6
00 13.02 З 2 4000 м слаб. снег 10/8 300 м
[Frnb As op]
-0.5 -1.8 91 -4 -4 1008.5 985.2
03 13.02 СЗ 3 4000 м слаб. снег 10/8 300 м
[Frnb As op]
-2.5 -4.7 85 -8 -8 1010.0 986.5 -2.5 0.4
06 13.02 З 3 10 км {снег} 10/10 300 м
[St]
-3.9 -6.4 83 -9 -9 1010.7 987.0 -3.9 0.6 34
09 13.02 СЗ 2 10 км 8/8 600 м
[Sc]
-2.7 -7.7 68 -6 -6 1010.2 986.7
12 13.02 З 4 10 км 9/9 600 м
[Sc]
-3.7 -7.7 74 -10 -10 1011.1 987.5
15 13.02 З 1 10 км 9/9 600 м
[Sc]
-4.5 -8.0 77 -7 -7 1012.6 988.9 0.2
18 13.02 З 1 10 км ясно -8.5 -10.2 87 -11 -11 1014.7 990.6 -2.7
21 13.02 штиль 0 10 км 9/5 600 м
[Sc Ac cast]
-9.8 -11.2 89 -10 -10 1016.3 992.0
00 14.02 Ю 1 10 км 3/0
[Ac cast]
-12.1 -13.8 87 -14 -14 1018.0 993.5
03 14.02 Ю 1 10 км 8/0
[Ac cast]
-8.9 -10.2 90 -11 -11 1018.2 993.9 -12.3
06 14.02 Ю 2 10 км 9/9 600 м
[Sc]
-6.6 -7.9 90 -11 -11 1018.8 994.7 -12.3 33
09 14.02 Ю 2 10 км 10/10 300 м
[St]
-3.6 -5.7 85 -8 -8 1020.2 996.4
12 14.02 З 2 10 км 9/9 600 м
[Sc]
-0.5 -3.7 79 -4 -4 1020.5 996.9
15 14.02 ЮЗ 1 10 км 10/10 300 м
[St]
-0.9 -2.5 89 -3 -3 1021.0 997.4
18 14.02 ЮЗ 2 10 км 9/0
[Ac As]
-0.8 -2.2 90 -5 -5 1021.0 997.4 -0.3
21 14.02 ЮЗ 3 4000 м в посл. час снег 10/0
[Ac As]
-0.8 -2.0 92 -6 -6 1018.6 995.0
00 15.02 ЮЗ 4 10 км {снег} 10/0
[Ac As]
-0.3 -2.4 86 -6 -6 1014.8 991.4
03 15.02 З 4
{11}
10 км 10/10 300 м
[St]
+0.7 -0.8 90 -5 -5 1012.8 989.5 -1.1 0.0
06 15.02 З 4
{11}
4000 м слаб. морось 10/10 300 м
[St]
+1.2 -0.2 90 -4 -4 1011.8 988.6 -1.1 0.0 32
09 15.02 З 4
{11}
10 км {морось} 10/10 300 м
[St]
+2.1 +0.1 87 -3 -3 1012.4 989.3
12 15.02 З 4-10
{15}
10 км {морось} 8/8 600 м
[Sc]
+3.5 -0.7 74 -1 -1 1011.4 988.4
15 15.02 З 3
{12}
10 км 8/8 300 м
[St]
+2.9 -1.3 74 -1 -1 1012.1 989.0 0.1
18 15.02 З 3
{12}
20 км 3/0
[Ci fib]
+2.0 -2.2 74 -2 -2 1012.0 988.9 +3.5 0.1
21 15.02 З 4 20 км 10/0
[Cs]
+2.0 -1.8 76 -3 -3 1012.3 989.2
00 16.02 З 3 10 км 10/0
[Cs]
+1.3 -1.1 84 -3 -3 1013.9 990.6
03 16.02 З 2 10 км ясно -0.1 -1.5 90 -4 -4 1014.6 991.2 -0.1
06 16.02 З 2 4000 м дымка 8/8 300 м
[St]
-0.3 -1.3 93 -4 -4 1015.0 991.6 -1.3 29
09 16.02 ЮЗ 1 10 км 10/8 600 м
[Sc As trans]
+1.7 -0.4 86 -0 0 1014.2 991.0
12 16.02 ЮЗ 2 4000 м слаб. морось 10/10 300 м
[St]
+1.5 -0.1 89 -2 -2 1011.4 988.2
15 16.02 ЮЗ 3 10 км {морось} 4/0
[Ac cast Ci fib]
+1.7 -0.8 83 -3 -3 1008.0 985.0 0.0

 

Местоположение метеостанции Бологое (Тверская область, Россия): широта 57.88 долгота 34.03 высота над уровнем моря 187 м.

В архиве по умолчанию представлена погода в Бологом за последнюю неделю. Архивные данные за месяц целиком и за предыдущие месяцы, начиная с января 2011 года, Вы можете получить, выбрав интересующий диапазон дат из раскрывающегося списка и нажав кнопку "Ввод!".


*Определитесь, кто Вы:
робот инопланетянин человек

Внимание! Время в таблицах - всемирное. Для получения местного времени необходимо прибавить поправку, которая равна 3 ч.

Смотрите также архив погоды в соседних городах и на ближайших метеорологических станциях:

Погода в Валдае (Новгородская область, Россия) (48 км)
Погода в Вышнем Волочке (Тверская область, Россия) (50 км)
Погода в Удомле (Тверская область, Россия) (58 км)
Погода в Боровичах (Новгородская область, Россия) (61 км)
Погода в Охонах (Новгородская область, Россия) (68 км)
Погода в Окуловке (Новгородская область, Россия) (69 км)
Погода в Демянске (Новгородская область, Россия) (96 км)
Погода в Крестцах (Новгородская область, Россия) (99 км)
Погода в Осташкове (Тверская область, Россия) (102 км)
Погода в Максатихе (Тверская область, Россия) (111 км)

Пояснения к столбцам:

Ветер - указаны скорость ветра в м/с - средняя за 10 мин, порывы в срок и между сроками (в фигурных скобках) и направление, откуда дует ветер: С - северный, СВ - северо-восточный, В - восточный, ЮВ - юго-восточный, Ю - южный, ЮЗ - юго-западный, З - западный, СЗ - северо-западный.
Видимость - горизонтальная дальность видимости в метрах или километрах. При видимости от 1 до 10 км при отсутствии осадков обычно наблюдается дымка, при ухудшении видимости до 1 км и менее - туман. В сухую погоду видимость может ухудшаться дымом, пылью или мглою.
Явления - указаны атмосферные явления, наблюдавшиеся в срок или в последний час перед сроком; фигурными скобками обозначены явления, наблюдавшиеся между сроками (за 1-3 часа до срока); квадратными скобками обозначены град или гололедные отложения с указанием их диаметра в мм.
Облачность - указаны через наклонную черту общая и нижняя облачность в баллах и высота нижней границы облаков в метрах; квадратными скобками обозначены формы облаков: Ci - перистые, Cs - перисто-слоистые, Cc - перисто-кучевые, Ac - высококучевые, As - высокослоистые, Sc - слоисто-кучевые, Ns - слоисто-дождевые, Cu - кучевые, Cb - кучево-дождевые. Подробнее классификацию облаков см. в Атласе облаков (PDF).
T - Температура воздуха - температура, измеренная на высоте 2 м над землей.
Td - Температура точки росы - температура, при понижении до которой содержащийся в воздухе водяной пар достигнет насыщения.
f - Относительная влажность воздуха - влажноcть воздуха, измеренная на высоте 2 м над землей.
Te - Эффективная температура - температура, которую ощущает одетый по сезону человек в тени. Характеристика душности погоды. При расчете учитывается влияние влажности воздуха и скорости ветра на теплоощущения человека.
Tes - Эффективная температура на солнце - температура, которую ощущает человек, с поправкой на солнечный нагрев. Характеристика знойности погоды. Зависит от высоты солнца над горизонтом, облачности и скорости ветра. Ночью, в пасмурную погоду, а также при ветре 12 м/с и более поправка равна нулю.
P - Атмосферное давление - приведенное к уровню моря атмосферное давление.
Po - Атмосферное давление - измеренное на уровне метеостанции атмосферное давление.
Tmin - Минимальная температура - минимум температуры воздуха на высоте 2 м над землей.
Tmax - Максимальная температура - максимум температуры воздуха на высоте 2 м над землей.
R - Количество осадков - Количество выпавших осадков за период времени, мм. При наведении курсора мыши на число - период времени, за который выпало указанное количество осадков.
R24 - Количество осадков - Количество выпавших осадков за 24 часа, мм.
S - Снежный покров - Высота снежного покрова, см. При наведении курсора мыши на число - состояние снежного покрова и степень покрытия местности в баллах.